Time,TemperatureF,DewpointF,PressureIn,WindDirection,WindDirectionDegrees,WindSpeedMPH,WindSpeedGustMPH,Humidity,HourlyPrecipIn,Conditions,Clouds,dailyrainin,SolarRadiationWatts/m^2,SoftwareType,DateUTC
2013-07-26 00:02:00,71.0,45.0,-100.00,SSW,208,4.0,12.0,40,0.00,,,0.00,0.000000,,2013-07-26 06:02:00,
2013-07-26 00:33:00,69.0,47.0,-100.00,South,189,0.0,7.0,45,0.00,,,0.00,0.000000,,2013-07-26 06:33:00,
2013-07-26 00:43:00,69.0,47.0,-100.00,South,189,0.0,7.0,45,0.00,,,0.00,0.000000,,2013-07-26 06:43:00,
2013-07-26 00:52:00,69.0,47.0,-100.00,South,189,0.0,7.0,45,0.00,,,0.00,0.000000,,2013-07-26 06:52:00,
2013-07-26 01:02:00,69.0,47.0,-100.00,South,189,0.0,7.0,45,0.00,,,0.00,0.000000,,2013-07-26 07:02:00,
2013-07-26 01:32:00,70.0,48.0,-100.00,SE,144,3.0,17.0,45,0.00,,,0.00,0.000000,,2013-07-26 07:32:00,
2013-07-26 01:43:00,70.0,48.0,-100.00,SE,144,3.0,17.0,45,0.00,,,0.00,0.000000,,2013-07-26 07:43:00,
2013-07-26 01:53:00,70.0,48.0,-100.00,SE,144,3.0,17.0,45,0.00,,,0.00,0.000000,,2013-07-26 07:53:00,
2013-07-26 02:02:00,70.0,48.0,-100.00,SE,144,3.0,17.0,45,0.00,,,0.00,0.000000,,2013-07-26 08:02:00,
2013-07-26 02:32:00,68.0,48.0,-100.00,SSE,150,7.0,15.0,49,0.00,,,0.00,0.000000,,2013-07-26 08:32:00,
2013-07-26 02:44:00,68.0,48.0,-100.00,SSE,150,7.0,15.0,49,0.00,,,0.00,0.000000,,2013-07-26 08:44:00,
2013-07-26 02:52:00,68.0,48.0,-100.00,SSE,150,7.0,15.0,49,0.00,,,0.00,0.000000,,2013-07-26 08:52:00,
2013-07-26 03:02:00,68.0,48.0,-100.00,SSE,150,7.0,15.0,49,0.00,,,0.00,0.000000,,2013-07-26 09:02:00,
2013-07-26 03:32:00,63.0,47.0,-100.00,WSW,241,3.0,12.0,55,0.00,,,0.00,0.000000,,2013-07-26 09:32:00,
2013-07-26 03:43:00,63.0,47.0,-100.00,WSW,241,3.0,12.0,55,0.00,,,0.00,0.000000,,2013-07-26 09:43:00,
2013-07-26 03:52:00,63.0,47.0,-100.00,WSW,241,3.0,12.0,55,0.00,,,0.00,0.000000,,2013-07-26 09:52:00,
2013-07-26 04:02:00,63.0,47.0,-100.00,WSW,241,3.0,12.0,55,0.00,,,0.00,0.000000,,2013-07-26 10:02:00,
2013-07-26 04:33:00,59.0,45.0,-100.00,WSW,240,3.0,9.0,59,0.00,,,0.00,0.000000,,2013-07-26 10:33:00,
2013-07-26 04:42:00,59.0,45.0,-100.00,WSW,240,3.0,9.0,59,0.00,,,0.00,0.000000,,2013-07-26 10:42:00,
2013-07-26 04:52:00,59.0,45.0,-100.00,WSW,240,3.0,9.0,59,0.00,,,0.00,0.000000,,2013-07-26 10:52:00,
2013-07-26 05:02:00,59.0,45.0,-100.00,WSW,240,3.0,9.0,59,0.00,,,0.00,0.000000,,2013-07-26 11:02:00,
2013-07-26 05:32:00,58.0,45.0,-100.00,WSW,237,4.0,6.0,63,0.00,,,0.00,0.000000,,2013-07-26 11:32:00,
2013-07-26 05:43:00,58.0,45.0,-100.00,WSW,237,4.0,6.0,63,0.00,,,0.00,0.000000,,2013-07-26 11:43:00,
2013-07-26 05:52:00,58.0,45.0,-100.00,WSW,237,4.0,6.0,63,0.00,,,0.00,0.000000,,2013-07-26 11:52:00,
2013-07-26 06:02:00,58.0,45.0,-100.00,WSW,237,4.0,6.0,63,0.00,,,0.00,0.000000,,2013-07-26 12:02:00,
2013-07-26 06:33:00,58.0,46.0,-100.00,SW,230,4.0,6.0,64,0.00,,,0.00,0.000000,,2013-07-26 12:33:00,
2013-07-26 06:43:00,58.0,46.0,-100.00,SW,230,4.0,6.0,64,0.00,,,0.00,0.000000,,2013-07-26 12:43:00,
2013-07-26 06:53:00,58.0,46.0,-100.00,SW,230,4.0,6.0,64,0.00,,,0.00,0.000000,,2013-07-26 12:53:00,
2013-07-26 07:02:00,58.0,46.0,-100.00,SW,230,4.0,6.0,64,0.00,,,0.00,0.000000,,2013-07-26 13:02:00,
2013-07-26 07:32:00,61.0,47.0,-100.00,SW,230,2.0,8.0,60,0.00,,,0.00,47.000000,,2013-07-26 13:32:00,
2013-07-26 07:43:00,61.0,47.0,-100.00,SW,230,2.0,8.0,60,0.00,,,0.00,47.000000,,2013-07-26 13:43:00,
2013-07-26 07:53:00,61.0,47.0,-100.00,SW,230,2.0,8.0,60,0.00,,,0.00,47.000000,,2013-07-26 13:53:00,
2013-07-26 08:02:00,61.0,47.0,-100.00,SW,230,2.0,8.0,60,0.00,,,0.00,47.000000,,2013-07-26 14:02:00,
2013-07-26 09:43:00,72.0,48.0,-100.00,South,182,11.0,13.0,43,-99.99,,,0.00,419.000000,,2013-07-26 15:43:00,
2013-07-26 09:53:00,72.0,48.0,-100.00,South,182,11.0,13.0,43,-99.99,,,0.00,419.000000,,2013-07-26 15:53:00,
2013-07-26 10:02:00,72.0,48.0,-100.00,South,182,11.0,13.0,43,-99.99,,,0.00,419.000000,,2013-07-26 16:02:00,
2013-07-26 10:32:00,73.0,49.0,-100.00,SE,130,12.0,17.0,42,0.00,,,0.00,573.000000,,2013-07-26 16:32:00,
2013-07-26 10:43:00,73.0,49.0,-100.00,SE,130,12.0,17.0,42,0.00,,,0.00,573.000000,,2013-07-26 16:43:00,
2013-07-26 10:54:00,73.0,49.0,-100.00,SE,130,12.0,17.0,42,0.00,,,0.00,573.000000,,2013-07-26 16:54:00,
2013-07-26 11:02:00,73.0,49.0,-100.00,SE,130,12.0,17.0,42,0.00,,,0.00,573.000000,,2013-07-26 17:02:00,
2013-07-26 11:33:00,77.0,50.0,-100.00,ESE,114,9.0,17.0,39,0.00,,,0.00,819.000000,,2013-07-26 17:33:00,
2013-07-26 11:43:00,77.0,50.0,-100.00,ESE,114,9.0,17.0,39,0.00,,,0.00,819.000000,,2013-07-26 17:43:00,
2013-07-26 11:53:00,77.0,50.0,-100.00,ESE,114,9.0,17.0,39,0.00,,,0.00,819.000000,,2013-07-26 17:53:00,
2013-07-26 12:02:00,77.0,50.0,-100.00,ESE,114,9.0,17.0,39,0.00,,,0.00,819.000000,,2013-07-26 18:02:00,
2013-07-26 12:33:00,80.0,50.0,-100.00,ESE,109,10.0,19.0,35,0.00,,,0.00,994.000000,,2013-07-26 18:33:00,
2013-07-26 12:44:00,80.0,50.0,-100.00,ESE,109,10.0,19.0,35,0.00,,,0.00,994.000000,,2013-07-26 18:44:00,
2013-07-26 12:52:00,80.0,50.0,-100.00,ESE,109,10.0,19.0,35,0.00,,,0.00,994.000000,,2013-07-26 18:52:00,
2013-07-26 13:02:00,80.0,50.0,-100.00,ESE,109,10.0,19.0,35,0.00,,,0.00,994.000000,,2013-07-26 19:02:00,
2013-07-26 13:32:00,84.0,44.0,-100.00,East,81,8.0,15.0,25,0.00,,,0.00,1086.000000,,2013-07-26 19:32:00,
2013-07-26 13:43:00,84.0,44.0,-100.00,East,81,8.0,15.0,25,0.00,,,0.00,1086.000000,,2013-07-26 19:43:00,
2013-07-26 13:52:00,84.0,44.0,-100.00,East,81,8.0,15.0,25,0.00,,,0.00,1086.000000,,2013-07-26 19:52:00,
2013-07-26 14:01:00,84.0,44.0,-100.00,East,81,8.0,15.0,25,0.00,,,0.00,1086.000000,,2013-07-26 20:01:00,
2013-07-26 14:32:00,87.0,42.0,-100.00,ENE,78,9.0,15.0,21,0.00,,,0.00,1121.000000,,2013-07-26 20:32:00,
2013-07-26 14:43:00,87.0,42.0,-100.00,ENE,78,9.0,15.0,21,0.00,,,0.00,1121.000000,,2013-07-26 20:43:00,
2013-07-26 14:53:00,87.0,42.0,-100.00,ENE,78,9.0,15.0,21,0.00,,,0.00,1121.000000,,2013-07-26 20:53:00,
2013-07-26 15:01:00,87.0,42.0,-100.00,ENE,78,9.0,15.0,21,0.00,,,0.00,1121.000000,,2013-07-26 21:01:00,
2013-07-26 16:33:00,90.0,41.0,-100.00,NNE,27,8.0,16.0,18,0.00,,,0.00,1008.000000,,2013-07-26 22:33:00,
2013-07-26 16:43:00,90.0,41.0,-100.00,NNE,27,8.0,16.0,18,0.00,,,0.00,1008.000000,,2013-07-26 22:43:00,
2013-07-26 16:53:00,90.0,41.0,-100.00,NNE,27,8.0,16.0,18,0.00,,,0.00,1008.000000,,2013-07-26 22:53:00,
2013-07-26 17:02:00,90.0,41.0,-100.00,NNE,27,8.0,16.0,18,0.00,,,0.00,1008.000000,,2013-07-26 23:02:00,
2013-07-26 17:32:00,89.0,40.0,-100.00,NE,53,10.0,15.0,18,0.00,,,0.00,873.000000,,2013-07-26 23:32:00,
2013-07-26 17:43:00,89.0,40.0,-100.00,NE,53,10.0,15.0,18,0.00,,,0.00,873.000000,,2013-07-26 23:43:00,
2013-07-26 17:53:00,89.0,40.0,-100.00,NE,53,10.0,15.0,18,0.00,,,0.00,873.000000,,2013-07-26 23:53:00,
2013-07-26 18:01:00,89.0,40.0,-100.00,NE,53,10.0,15.0,18,0.00,,,0.00,873.000000,,2013-07-27 00:01:00,
2013-07-26 18:43:00,91.0,35.0,-100.00,NE,46,8.0,16.0,14,0.00,,,0.00,516.000000,,2013-07-27 00:43:00,
2013-07-26 18:53:00,91.0,35.0,-100.00,NE,46,8.0,16.0,14,0.00,,,0.00,516.000000,,2013-07-27 00:53:00,
2013-07-26 19:02:00,91.0,35.0,-100.00,NE,46,8.0,16.0,14,0.00,,,0.00,516.000000,,2013-07-27 01:02:00,
2013-07-26 19:32:00,91.0,29.0,-100.00,NNE,29,2.0,16.0,11,0.00,,,0.00,218.000000,,2013-07-27 01:32:00,
2013-07-26 19:44:00,91.0,29.0,-100.00,NNE,29,2.0,16.0,11,0.00,,,0.00,218.000000,,2013-07-27 01:44:00,
2013-07-26 19:53:00,91.0,29.0,-100.00,NNE,29,2.0,16.0,11,0.00,,,0.00,218.000000,,2013-07-27 01:53:00,
2013-07-26 20:02:00,91.0,29.0,-100.00,NNE,29,2.0,16.0,11,0.00,,,0.00,218.000000,,2013-07-27 02:02:00,
2013-07-26 20:32:00,87.0,28.0,-100.00,NW,311,0.0,11.0,12,0.00,,,-99.99,160.000000,,2013-07-27 02:32:00,
2013-07-26 20:43:00,87.0,28.0,-100.00,NW,311,0.0,11.0,12,0.00,,,-99.99,160.000000,,2013-07-27 02:43:00,
2013-07-26 20:53:00,87.0,28.0,-100.00,NW,311,0.0,11.0,12,0.00,,,-99.99,160.000000,,2013-07-27 02:53:00,
2013-07-26 21:02:00,87.0,28.0,-100.00,NW,311,0.0,11.0,12,0.00,,,-99.99,160.000000,,2013-07-27 03:02:00,
2013-07-26 21:33:00,83.0,29.0,-100.00,West,278,6.0,7.0,14,0.00,,,0.00,24.000000,,2013-07-27 03:33:00,
2013-07-26 21:44:00,83.0,29.0,-100.00,West,278,6.0,7.0,14,0.00,,,0.00,24.000000,,2013-07-27 03:44:00,
2013-07-26 21:52:00,83.0,29.0,-100.00,West,278,6.0,7.0,14,0.00,,,0.00,24.000000,,2013-07-27 03:52:00,
2013-07-26 22:02:00,83.0,29.0,-100.00,West,278,6.0,7.0,14,0.00,,,0.00,24.000000,,2013-07-27 04:02:00,
2013-07-26 22:32:00,83.0,23.0,-100.00,NW,309,9.0,16.0,11,0.00,,,0.00,1.000000,,2013-07-27 04:32:00,
2013-07-26 23:33:00,82.0,26.0,-100.00,West,276,2.0,15.0,13,0.00,,,0.00,0.000000,,2013-07-27 05:33:00,